Miscellaneous Local Product
Issued by NWS Hastings, NE

Home | Current Version | Previous Version | Text Only | Print | Product List | Glossary Off
Versions: 1 2 3 4 5 6 7 8 9 10 11 12 13 14 15 16 17 18 19 20 21 22 23 24 25 26 27 28 29 30 31 32 33 34 35 36 37 38 39 40 41 42 43 44 45 46 47 48 49 50

749
AXUS43 KGID 232002
MISGRI

GID CWA HOURLY WEATHER ROUNDUP
NATIONAL WEATHER SERVICE HASTINGS NE
300 PM CDT SAT SEP 23 2017

NOTE: "FAIR" INDICATES FEW OR NO CLOUDS BELOW 12,000 FEET WITH NO
SIGNIFICANT WEATHER AND/OR OBSTRUCTIONS TO VISIBILITY.

...SOUTH CENTRAL NEBRASKA...

CITY           SKY/WX    TMP DP  RH WIND       PRES   REMARKS
GRAND ISLAND   PTSUNNY   84  68  58 S12       29.86F
HASTINGS       PTSUNNY   82  64  54 SW13G23   29.88F
KEARNEY        PTSUNNY   88  65  46 SE25      29.84F HX  90
ORD            PTSUNNY   75  57  53 N9        29.86F
YORK           MOSUNNY   91  61  35 S23G30    29.87F HX  91
AURORA         PTSUNNY   85  67  54 S7        29.87F
LEXINGTON      LGT RAIN  81  68  63 CALM      29.83F
HOLDREGE       PTSUNNY   87  60  40 S17G25    29.83F
HEBRON         MOSUNNY   92  61  35 SE18G25   29.89F HX  92

...NEBRASKA PANHANDLE...

CITY           SKY/WX    TMP DP  RH WIND       PRES   REMARKS
CHADRON        LGT RAIN  46  43  89 N6        30.03R FOG
ALLIANCE       LGT RAIN  46  43  89 N7        30.00S
SCOTTSBLUFF    LGT RAIN  46  43  89 NE6       30.01F FOG
SIDNEY         LGT RAIN  47  46  97 NE13      29.93F

...WESTERN AND NORTH CENTRAL NEBRASKA...

CITY           SKY/WX    TMP DP  RH WIND       PRES   REMARKS
VALENTINE      LGT RAIN  51  50  96 N8        29.96F FOG
AINSWORTH      CLOUDY    51  51 100 NE8       29.95F
ONEILL         CLOUDY    56  56 100 NE6       29.95S FOG
BROKEN BOW     CLOUDY    63  55  75 N12       29.89F
IMPERIAL       PTSUNNY   57  52  83 N12       29.92F
NORTH PLATTE   LGT RAIN  55  53  93 NW14G28   29.97R
MCCOOK         CLOUDY    71  57  61 NW18G33   29.85F

...EASTERN NEBRASKA...

CITY           SKY/WX    TMP DP  RH WIND       PRES   REMARKS
NORFOLK        PTSUNNY   86  69  56 S16       29.86F HX  90
SO SIOUX CITY  MOSUNNY   88  70  55 S13G24    29.88F HX  93
TEKAMAH        MOSUNNY   89  66  46 SE18G24   29.89F HX  91
COLUMBUS       PTSUNNY   91  66  43 S18G30    29.87F HX  93
ALBION         CLOUDY    84  68  57 S17G23    29.87F
OMAHA EPPLEY   PTSUNNY   91  65  41 SE21G29   29.91F HX  93
OFFUTT AFB     SUNNY     91  66  43 SE18G25   29.90F HX  93
MILLARD        PTSUNNY   92  68  44 S13G18    29.90F HX  96
LINCOLN        SUNNY     92  65  40 S18G26    29.89F HX  94
NEBRASKA CITY  MOSUNNY   89  66  45 S21       29.93F HX  91
BEATRICE       MOSUNNY   91  66  44 S15G23    29.91F HX  93
FALLS CITY     SUNNY     90  62  39 S15G24    29.94F HX  90

...NORTHERN KANSAS...

CITY           SKY/WX    TMP DP  RH WIND       PRES   REMARKS
GOODLAND       CLOUDY    58  53  84 NW8       29.91F
HILL CITY      PTSUNNY   91  64  40 S22G33    29.82F HX  92
NORTON         PTCLDY    86  55  35 SW21G26   29.83S
PHILLIPSBURG   LGT RAIN  86  64  48 S14G29    29.83S
SMITH CENTER   CLOUDY    88  63  42 SE17G29   29.84F
HAYS           PTSUNNY   88  61  40 S22       29.84F
RUSSELL        MOSUNNY   91  61  36 S22G31    29.85F HX  91
CONCORDIA      MOSUNNY   87  65  47 S20G26    29.89F
SALINA         SUNNY     94  60  32 S25       29.89F HX  94
TOPEKA         MOSUNNY   90  68  48 SE13G21   29.95F HX  94



USA.gov is the U.S. government's official web portal to all federal, state and local government web resources and services.